When you browse on this site, cookies collect data to enhance your experience and personalize the content and advertising you see.
Visit our Privacy Policy to learn more. By continuing to use the site, you agree to this use of cookies and data.
  • In Romania
  • List of Countries
  • For 7 days
  • Water Temperature
  • Weather Map
  • Weather Widgets
  • user-avatar
    Login

    Hourly Weather Barinas

    Today, 15 December, Sunday

    Time Temperature Precipitation Wind Pressure Humidity
    00:00 +25°C° 0.1 mm 1 mps 743 mmHg 87%
    01:00 +25°C° 0 mm 1 mps 742 mmHg 86%
    02:00 +25°C° 0 mm 1 mps 742 mmHg 85%
    03:00 +25°C° 0 mm 1 mps 742 mmHg 84%
    04:00 +25°C° 0 mm 1 mps 742 mmHg 82%
    05:00 +25°C° 0.1 mm 1 mps 743 mmHg 82%
    06:00 +25°C° 0.1 mm 1 mps 743 mmHg 82%
    07:00 +26°C° 0.1 mm 2 mps 744 mmHg 82%
    08:00 +27°C° 0.8 mm 2 mps 744 mmHg 78%
    09:00 +29°C° 0.8 mm 2 mps 745 mmHg 74%
    10:00 +30°C° 0.8 mm 3 mps 745 mmHg 70%
    11:00 +31°C° 0.7 mm 3 mps 744 mmHg 68%
    12:00 +31°C° 0.7 mm 3 mps 743 mmHg 67%
    13:00 +33°C° 0.7 mm 3 mps 742 mmHg 65%
    14:00 +31°C° 0.2 mm 3 mps 742 mmHg 67%
    15:00 +31°C° 0.2 mm 2 mps 741 mmHg 69%
    16:00 +31°C° 0.2 mm 2 mps 741 mmHg 71%
    17:00 +29°C° 0.6 mm 2 mps 741 mmHg 77%
    18:00 +28°C° 0.6 mm 2 mps 742 mmHg 83%
    19:00 +26°C° 0.6 mm 1 mps 742 mmHg 89%
    20:00 +26°C° 0.1 mm 1 mps 743 mmHg 89%
    21:00 +26°C° 0.1 mm 1 mps 743 mmHg 90%
    22:00 +25°C° 0.1 mm 1 mps 743 mmHg 90%
    23:00 +25°C° 0.7 mm 1 mps 743 mmHg 90%

    Tomorrow, 16 December, Monday

    Time Temperature Precipitation Wind Pressure Humidity
    00:00 +25°C° 0.7 mm 1 mps 743 mmHg 90%
    01:00 +24°C° 0.7 mm 1 mps 742 mmHg 90%
    02:00 +24°C° 1.2 mm 1 mps 742 mmHg 90%
    03:00 +24°C° 1.2 mm 1 mps 742 mmHg 90%
    04:00 +24°C° 1.2 mm 1 mps 742 mmHg 90%
    05:00 +24°C° 0.6 mm 1 mps 742 mmHg 89%
    06:00 +25°C° 0.6 mm 1 mps 743 mmHg 88%
    07:00 +25°C° 0.6 mm 1 mps 743 mmHg 87%
    08:00 +27°C° 0.4 mm 1 mps 744 mmHg 81%
    09:00 +29°C° 0.4 mm 2 mps 744 mmHg 74%
    10:00 +31°C° 0.4 mm 2 mps 744 mmHg 68%
    11:00 +31°C° 0.9 mm 2 mps 743 mmHg 69%
    12:00 +31°C° 0.9 mm 2 mps 742 mmHg 69%
    13:00 +31°C° 0.9 mm 2 mps 741 mmHg 70%
    14:00 +31°C° 0.2 mm 2 mps 741 mmHg 70%
    15:00 +31°C° 0.2 mm 2 mps 740 mmHg 70%
    16:00 +31°C° 0.2 mm 2 mps 740 mmHg 70%
    17:00 +29°C° 0.3 mm 2 mps 740 mmHg 75%
    18:00 +28°C° 0.3 mm 2 mps 740 mmHg 81%
    19:00 +26°C° 0.3 mm 2 mps 741 mmHg 87%
    20:00 +26°C° 0.2 mm 2 mps 741 mmHg 88%
    21:00 +25°C° 0.2 mm 2 mps 742 mmHg 89%
    22:00 +25°C° 0.2 mm 2 mps 743 mmHg 90%
    23:00 +25°C° 0.2 mm 1 mps 742 mmHg 89%

    Day after tomorrow, 17 December, Tuesday

    Time Temperature Precipitation Wind Pressure Humidity
    00:00 +25°C° 0.2 mm 1 mps 742 mmHg 88%
    01:00 +24°C° 0.2 mm 1 mps 742 mmHg 87%
    02:00 +24°C° 0.6 mm 1 mps 741 mmHg 88%
    03:00 +24°C° 0.6 mm 1 mps 741 mmHg 89%
    04:00 +24°C° 0.6 mm 1 mps 741 mmHg 90%
    05:00 +24°C° 0.2 mm 1 mps 742 mmHg 89%
    06:00 +24°C° 0.2 mm 1 mps 742 mmHg 89%
    07:00 +25°C° 0.2 mm 1 mps 743 mmHg 88%
    08:00 +26°C° 0.2 mm 2 mps 743 mmHg 82%
    09:00 +28°C° 0.2 mm 3 mps 743 mmHg 76%
    10:00 +30°C° 0.2 mm 3 mps 743 mmHg 70%
    11:00 +31°C° 0.3 mm 3 mps 743 mmHg 66%
    12:00 +31°C° 0.3 mm 3 mps 742 mmHg 62%
    13:00 +33°C° 0.3 mm 3 mps 741 mmHg 59%
    14:00 +33°C° 0 mm 3 mps 740 mmHg 61%
    15:00 +31°C° 0 mm 3 mps 739 mmHg 63%
    16:00 +31°C° 0 mm 3 mps 739 mmHg 65%
    17:00 +29°C° 0.2 mm 2 mps 739 mmHg 72%
    18:00 +28°C° 0.2 mm 2 mps 740 mmHg 79%
    19:00 +26°C° 0.2 mm 2 mps 740 mmHg 85%
    20:00 +26°C° 0.1 mm 2 mps 741 mmHg 86%
    21:00 +25°C° 0.1 mm 2 mps 741 mmHg 87%
    22:00 +25°C° 0.1 mm 2 mps 742 mmHg 88%
    23:00 +24°C° 0.2 mm 2 mps 741 mmHg 87%

    18 December, Wednesday

    Time Temperature Precipitation Wind Pressure Humidity
    00:00 +24°C° 0.2 mm 2 mps 741 mmHg 87%
    01:00 +24°C° 0.2 mm 2 mps 741 mmHg 86%
    02:00 +24°C° 0.2 mm 2 mps 741 mmHg 85%
    03:00 +24°C° 0.2 mm 2 mps 741 mmHg 83%
    04:00 +24°C° 0.2 mm 1 mps 741 mmHg 82%
    05:00 +25°C° 0 mm 2 mps 741 mmHg 83%
    06:00 +25°C° 0 mm 2 mps 742 mmHg 84%
    07:00 +25°C° 0 mm 2 mps 742 mmHg 85%
    08:00 +27°C° 0.1 mm 3 mps 743 mmHg 79%
    09:00 +28°C° 0.1 mm 3 mps 743 mmHg 74%
    10:00 +29°C° 0.1 mm 4 mps 743 mmHg 68%
    11:00 +30°C° 0.1 mm 4 mps 742 mmHg 65%
    12:00 +32°C° 0.1 mm 4 mps 742 mmHg 62%
    13:00 +31°C° 0.1 mm 3 mps 741 mmHg 59%
    14:00 +31°C° 0 mm 3 mps 740 mmHg 61%
    15:00 +31°C° 0 mm 3 mps 740 mmHg 62%
    16:00 +31°C° 0 mm 3 mps 739 mmHg 64%
    17:00 +29°C° 0 mm 2 mps 740 mmHg 69%
    18:00 +28°C° 0 mm 2 mps 740 mmHg 75%
    19:00 +26°C° 0 mm 1 mps 741 mmHg 80%
    20:00 +26°C° 0 mm 1 mps 741 mmHg 80%
    21:00 +25°C° 0 mm 1 mps 742 mmHg 80%
    22:00 +25°C° 0 mm 2 mps 742 mmHg 80%
    23:00 +25°C° 0 mm 2 mps 742 mmHg 78%

    19 December, Thursday

    Time Temperature Precipitation Wind Pressure Humidity
    00:00 +25°C° 0 mm 2 mps 741 mmHg 76%
    01:00 +24°C° 0 mm 2 mps 741 mmHg 74%
    02:00 +24°C° 0 mm 2 mps 741 mmHg 71%
    03:00 +24°C° 0 mm 2 mps 741 mmHg 68%
    04:00 +24°C° 0 mm 2 mps 741 mmHg 66%
    05:00 +25°C° 0 mm 2 mps 742 mmHg 67%
    06:00 +25°C° 0 mm 2 mps 742 mmHg 67%
    07:00 +25°C° 0 mm 2 mps 743 mmHg 68%
    08:00 +27°C° 0 mm 3 mps 743 mmHg 64%
    09:00 +29°C° 0 mm 3 mps 743 mmHg 60%
    10:00 +32°C° 0 mm 4 mps 743 mmHg 57%
    11:00 +32°C° 0 mm 4 mps 743 mmHg 55%
    12:00 +33°C° 0 mm 4 mps 742 mmHg 53%
    13:00 +33°C° 0 mm 4 mps 742 mmHg 51%
    14:00 +33°C° 0 mm 3 mps 741 mmHg 54%
    15:00 +33°C° 0 mm 3 mps 741 mmHg 57%
    16:00 +31°C° 0 mm 2 mps 740 mmHg 60%
    17:00 +30°C° 0 mm 2 mps 741 mmHg 65%
    18:00 +28°C° 0 mm 2 mps 741 mmHg 70%
    19:00 +26°C° 0 mm 1 mps 742 mmHg 75%
    20:00 +26°C° 0 mm 1 mps 742 mmHg 75%
    21:00 +26°C° 0 mm 1 mps 742 mmHg 75%
    22:00 +25°C° 0 mm 1 mps 743 mmHg 75%
    23:00 +25°C° 0 mm 1 mps 743 mmHg 73%

    20 December, Friday

    Time Temperature Precipitation Wind Pressure Humidity
    00:00 +25°C° 0 mm 1 mps 742 mmHg 72%
    01:00 +25°C° 0 mm 1 mps 742 mmHg 70%
    02:00 +25°C° 0 mm 1 mps 742 mmHg 69%
    03:00 +25°C° 0 mm 1 mps 742 mmHg 67%
    04:00 +25°C° 0 mm 1 mps 742 mmHg 65%
    05:00 +26°C° 0 mm 1 mps 742 mmHg 66%
    06:00 +26°C° 0 mm 1 mps 743 mmHg 66%
    07:00 +26°C° 0 mm 1 mps 744 mmHg 67%
    08:00 +28°C° 0 mm 2 mps 744 mmHg 64%
    09:00 +30°C° 0 mm 3 mps 744 mmHg 60%
    10:00 +31°C° 0 mm 3 mps 744 mmHg 57%
    11:00 +33°C° 0.1 mm 3 mps 743 mmHg 56%
    12:00 +33°C° 0.1 mm 3 mps 742 mmHg 55%
    13:00 +34°C° 0.1 mm 3 mps 741 mmHg 54%
    14:00 +34°C° 0 mm 3 mps 741 mmHg 56%
    15:00 +33°C° 0 mm 3 mps 740 mmHg 58%
    16:00 +33°C° 0 mm 3 mps 740 mmHg 59%
    17:00 +30°C° 0.1 mm 2 mps 740 mmHg 66%
    18:00 +29°C° 0.1 mm 2 mps 741 mmHg 72%
    19:00 +27°C° 0.1 mm 2 mps 741 mmHg 78%
    20:00 +27°C° 0 mm 2 mps 742 mmHg 79%
    21:00 +26°C° 0 mm 1 mps 742 mmHg 79%
    22:00 +26°C° 0 mm 1 mps 743 mmHg 79%
    23:00 +25°C° 0.6 mm 1 mps 743 mmHg 81%
    Show more